TimeEST,TemperatureF,Dew PointF,Humidity,Sea Level PressureIn,VisibilityMPH,Wind Direction,Wind SpeedMPH,Gust SpeedMPH,PrecipitationIn,Events,Conditions,WindDirDegrees,DateUTC
12:53 AM,25.0,16.0,69,30.06,10.0,WNW,6.9,-,N/A,,Overcast,290,2013-01-01 05:53:00
1:53 AM,25.0,14.0,63,30.06,10.0,NW,11.5,-,N/A,,Overcast,310,2013-01-01 06:53:00
2:53 AM,24.1,14.0,65,30.08,10.0,NW,8.1,-,N/A,,Overcast,310,2013-01-01 07:53:00
3:53 AM,23.0,14.0,68,30.08,10.0,NNW,9.2,-,N/A,,Overcast,330,2013-01-01 08:53:00
4:42 AM,21.2,15.8,80,30.06,10.0,North,5.8,-,N/A,,Overcast,360,2013-01-01 09:42:00
4:53 AM,21.9,15.1,75,30.08,10.0,North,6.9,-,N/A,,Overcast,360,2013-01-01 09:53:00
5:48 AM,21.2,12.2,68,30.06,10.0,NNW,5.8,-,N/A,,Overcast,330,2013-01-01 10:48:00
5:53 AM,21.0,12.9,71,30.09,10.0,NNW,8.1,-,N/A,,Overcast,330,2013-01-01 10:53:00
6:53 AM,19.9,10.9,68,30.10,10.0,NW,6.9,-,N/A,,Overcast,310,2013-01-01 11:53:00
7:53 AM,19.0,9.0,65,30.13,10.0,NW,5.8,-,N/A,,Overcast,310,2013-01-01 12:53:00
8:53 AM,18.0,8.1,65,30.15,10.0,WNW,5.8,-,N/A,,Overcast,300,2013-01-01 13:53:00
9:53 AM,19.0,9.0,65,30.17,10.0,WNW,6.9,-,N/A,,Overcast,290,2013-01-01 14:53:00
10:53 AM,21.0,9.0,60,30.19,10.0,WNW,10.4,-,N/A,,Overcast,300,2013-01-01 15:53:00
11:53 AM,21.9,8.1,55,30.14,10.0,North,9.2,-,N/A,,Overcast,10,2013-01-01 16:53:00
12:53 PM,21.9,8.1,55,30.12,10.0,NW,11.5,-,N/A,,Overcast,320,2013-01-01 17:53:00
1:53 PM,23.0,8.1,53,30.11,10.0,WNW,3.5,-,N/A,,Overcast,300,2013-01-01 18:53:00
2:53 PM,21.9,8.1,55,30.11,10.0,NW,10.4,-,N/A,,Overcast,320,2013-01-01 19:53:00
3:53 PM,21.9,8.1,55,30.11,10.0,WNW,5.8,-,N/A,,Overcast,290,2013-01-01 20:53:00
4:53 PM,21.9,8.1,55,30.12,10.0,West,6.9,-,N/A,,Overcast,260,2013-01-01 21:53:00
5:53 PM,21.0,9.0,60,30.12,10.0,West,5.8,-,N/A,,Overcast,270,2013-01-01 22:53:00
6:53 PM,19.9,8.1,60,30.11,10.0,SW,4.6,-,N/A,,Mostly Cloudy,230,2013-01-01 23:53:00
7:53 PM,14.0,5.0,67,30.10,10.0,WSW,4.6,-,N/A,,Partly Cloudy,250,2013-01-02 00:53:00
8:53 PM,17.1,8.1,68,30.10,10.0,WSW,5.8,-,N/A,,Overcast,240,2013-01-02 01:53:00
9:07 PM,17.6,8.6,68,30.06,10.0,SW,5.8,-,N/A,,Overcast,230,2013-01-02 02:07:00
9:53 PM,21.0,12.0,68,30.10,10.0,West,10.4,-,N/A,,Overcast,270,2013-01-02 02:53:00
10:53 PM,19.0,10.0,68,30.11,10.0,West,13.8,-,N/A,,Overcast,270,2013-01-02 03:53:00
11:53 PM,18.0,10.0,71,30.10,10.0,WNW,10.4,-,N/A,,Overcast,290,2013-01-02 04:53:00